Location: Newark
(46.9000°N, 28.3500°E)
Time: 22:28:39
(UTC+00:00)

Explorer 7 - Pass Details

Date: 28 August 2019
Orbit: 485 x 680 km, 50.3° (Epoch: 18 September)

Event Time Altitude Azimuth Distance (km) Brightness Sun altitude
Rises 04:58:08 0° 212° (SSW) 3,022 10.3 15.7°
Reaches altitude 10° 05:00:42 10° 203° (SSW) 2,109 9.6 16.1°
Maximum altitude 05:05:01 32° 141° (SE) 1,152 9.3 16.9°
Drops below altitude 10° 05:09:16 10° 79° (E) 2,073 11.6 17.6°
Sets 05:11:46 0° 69° (ENE) 2,963 11.7 18.0°
